Hourly Data Report for September 25, 2017

All times are specified in Local Standard Time (LST). Add 1 hour to adjust for Daylight Saving Time where and when it is observed.

ARVIAT A
NUNAVUT

61°05'38.000" N
94°04'18.000" W
10.40 m
2300427
71174
YEK

Related Data

No related data is available for this station

Download Data

Hourly Data (September 2017)
Hourly Data Report for September 25, 2017
Temp Definition
°C
Dew Point Temp Definition
°C
Rel Hum Definition
%
Wind Dir Definition
10's deg

Wind Spd Definition
km/h
Visibility Definition
km
Stn Press Definition
kPa
Hmdx Definition


Wind Chill Definition


Weather Definition


TIME
00:00 Legend Double Dagger 2.4 -1.7 75 33 11 16.1 101.99     LegendNANA
01:00 Legend Double Dagger 1.4 -1.9 79 31 11 16.1 101.98     LegendNANA
02:00 Legend Double Dagger 0.2 -1.4 89 31 13 16.1 101.99     LegendNANA
03:00 Legend Double Dagger -0.9 -2.2 91 31 13 16.1 102.00   -5 LegendNANA
04:00 Legend Double Dagger -0.5 -1.8 91 32 13 16.1 101.99   -5 LegendNANA
05:00 Legend Double Dagger -0.8 -1.9 92 33 13 16.1 101.99   -5 LegendNANA
06:00 Legend Double Dagger -0.9 -1.5 96 33 13 16.1 102.00   -5 LegendNANA
07:00 Legend Double Dagger -1.0 -1.7 95 35 9 16.1 102.01   -4 LegendNANA
08:00 Legend Double Dagger -0.5 -1.2 95 35 8 16.1 102.02   -3 LegendNANA
09:00 Legend Double Dagger 1.0 -0.5 90 35 5 16.1 102.03     LegendNANA
10:00 Legend Double Dagger 3.2 -0.1 79 5 5 16.1 102.02     LegendNANA
11:00 Legend Double Dagger 4.0 -1.2 69 LegendMM 4 16.1 102.04     LegendNANA
12:00 Legend Double Dagger 4.7 -0.8 68 18 8 16.1 102.03     LegendNANA
13:00 Legend Double Dagger 4.9 -0.5 68 17 9 16.1 102.02     LegendNANA
14:00 Legend Double Dagger 5.5 0.0 68 18 13 16.1 101.99     LegendNANA
15:00 Legend Double Dagger 5.7 0.5 69 19 17 16.1 101.99     LegendNANA
16:00 Legend Double Dagger 5.7 0.7 70 18 17 16.1 101.97     LegendNANA
17:00 Legend Double Dagger 5.5 0.6 71 18 21 16.1 101.97     LegendNANA
18:00 Legend Double Dagger 5.0 1.1 76 17 21 16.1 101.96     LegendNANA
19:00 Legend Double Dagger 4.0 1.4 83 17 17 16.1 101.95     LegendNANA
20:00 Legend Double Dagger 3.9 1.9 87 17 18 16.1 101.92     LegendNANA
21:00 Legend Double Dagger 4.1 2.4 89 17 24 16.1 101.92     LegendNANA
22:00 Legend Double Dagger 4.5 2.8 88 17 26 16.1 101.91     LegendNANA
23:00 Legend Double Dagger 4.6 3.0 89 17 24 16.1 101.90     LegendNANA

Notes on Data Quality.

Legend

  • E = Estimated
  • M = Missing
  • NA = Not Available
  • ‡ = Partner data that is not subject to review by the National Climate Archives
Date modified: